Vorticity
nan nan nan nan nan nan nan nan nan nan nan nan nan nan nan nan nan nan nan nan nan nan nan nan nan nan nan nan nan nan nan nan nan nan nan nan nan nan nan nan nan nan nan
nan 10 10 11 8 9 8 7 8 8 9 10 10 10 9 10 11 11 10 10 9 10 11 11 13 13 11 12 12 11 11 12 11 10 9 8 8 7 8 8 8 8 nan
nan 10 12 8 9 8 8 8 8 8 8 9 9 10 10 10 10 10 9 9 9 9 9 10 10 11 11 11 12 12 13 12 13 11 9 9 9 8 7 7 8 7 nan
nan 10 9 7 9 10 9 7 8 8 7 7 8 8 9 9 8 9 9 8 9 9 9 9 10 13 14 14 10 11 13 11 12 12 10 10 9 9 8 8 7 7 nan
nan 9 8 9 9 8 8 8 8 8 9 9 8 7 7 7 8 8 8 9 9 8 9 9 8 8 11 16 17 15 13 11 12 9 9 10 10 10 9 9 9 8 nan
nan 10 9 8 8 8 8 8 7 8 7 9 9 9 9 7 7 9 10 9 8 9 9 8 8 7 5 7 11 12 19 18 13 11 11 11 10 10 11 11 9 8 nan
nan 11 9 7 9 9 8 7 7 8 7 7 9 10 9 9 9 8 9 10 9 8 9 10 9 9 7 7 8 6 7 11 15 15 11 11 12 13 12 9 7 10 nan
nan 11 8 8 8 9 7 8 10 8 8 8 8 9 8 8 10 8 8 9 8 8 9 9 8 8 9 9 9 7 5 7 12 15 13 14 15 14 10 10 10 9 nan
nan 8 8 10 11 10 8 8 9 8 8 8 9 10 8 7 9 9 8 7 7 7 8 10 11 8 7 10 12 8 8 7 7 8 10 9 8 10 16 15 9 7 nan
nan 12 12 10 12 9 8 9 9 11 11 9 8 8 12 11 8 8 9 10 8 7 7 5 9 12 9 13 11 8 7 6 7 7 6 6 6 6 9 13 13 13 nan
nan 16 14 11 10 7 10 12 11 11 11 9 8 8 8 12 14 7 10 11 9 9 9 8 6 8 11 10 11 12 10 9 9 7 7 7 8 7 7 8 10 13 nan
nan 9 10 10 10 13 11 9 10 9 9 8 6 7 8 10 15 14 11 12 12 10 8 9 10 9 8 11 14 12 10 11 9 9 8 8 9 9 7 8 9 10 nan
nan 9 8 9 13 16 15 9 10 10 8 8 8 9 9 8 11 15 11 9 10 11 11 10 12 12 8 6 10 14 9 9 11 10 9 10 10 10 11 12 9 10 nan
nan 8 10 11 10 17 19 13 11 9 9 10 9 9 10 10 10 9 9 9 9 12 10 5 7 7 10 12 9 6 10 9 9 9 10 11 11 10 12 11 10 11 nan
nan 9 9 11 11 10 10 15 16 15 17 13 11 11 10 12 11 11 13 12 10 10 9 9 8 7 8 9 10 9 9 8 9 9 9 10 11 11 10 10 11 11 nan
nan 10 11 10 9 11 9 3 10 19 20 18 16 11 11 15 13 11 11 13 14 8 7 10 10 10 10 10 10 10 10 9 8 10 11 10 9 9 10 11 11 11 nan
nan 10 9 10 11 10 10 10 2 3 8 11 17 15 15 12 9 9 9 8 7 10 12 11 10 9 8 8 8 8 9 10 8 8 10 11 10 10 10 9 10 10 nan
nan 10 11 11 10 11 11 10 10 11 6 2 5 12 14 12 11 10 9 6 8 10 11 11 9 9 8 8 8 8 9 8 8 8 9 9 11 9 11 11 9 9 nan
nan 11 11 11 11 12 12 10 10 11 11 10 8 9 8 8 8 9 9 10 12 11 10 9 10 10 11 10 9 9 9 9 9 10 10 9 10 11 10 10 11 10 nan
nan 11 14 12 11 10 11 11 11 11 11 10 10 12 10 7 8 8 10 12 10 10 10 10 11 11 11 11 10 10 11 11 9 9 9 10 10 9 9 9 9 8 nan
nan 9 9 12 11 11 11 10 9 10 10 10 11 10 11 10 11 11 11 10 10 10 9 10 10 11 11 10 10 10 9 9 10 11 11 11 11 10 10 10 9 9 nan
nan 10 9 9 9 10 9 9 9 9 9 9 9 11 9 8 11 11 10 10 10 9 10 12 12 11 10 12 14 13 11 12 12 11 11 11 11 11 11 10 11 11 nan
nan 9 8 8 8 9 9 8 8 8 8 9 10 10 9 10 10 10 11 11 10 11 13 15 14 13 12 12 12 13 14 13 11 12 11 11 11 11 11 12 11 12 nan
nan 9 9 9 10 8 9 9 9 9 11 14 12 11 12 12 12 10 10 12 11 12 13 14 15 15 13 11 12 13 13 12 12 10 11 11 11 11 11 12 12 12 nan
nan 11 12 11 11 10 10 11 11 12 13 12 11 13 14 15 15 14 11 11 12 12 12 11 13 13 11 10 11 12 10 9 11 14 13 12 12 13 14 13 13 14 nan
nan nan nan nan nan nan nan nan nan nan nan nan nan nan nan nan nan nan nan nan nan nan nan nan nan nan nan nan nan nan nan nan nan nan nan nan nan nan nan nan nan nan nan
CAPE
276 232 228 262 254 257 196 144 71 7 7 7 3 2 4 8 11 5 7 5 7 9 11 9 23 330 575 594 429 639 617 341 91 6 9 8 6 6 6 5 5 7 11
159 154 354 342 255 288 140 43 5 3 5 4 1 1 2 6 11 12 11 3 2 6 5 6 14 100 138 448 464 203 355 26 2 6 8 7 6 4 4 3 4 5 7
191 243 625 280 250 262 168 92 5 2 2 0 0 0 1 2 4 10 10 7 3 3 5 5 4 4 12 72 98 99 107 73 8 5 7 9 10 5 4 4 4 5 5
636 686 821 354 238 246 187 69 5 1 1 2 0 0 0 0 0 0 2 5 7 0 1 5 5 6 13 23 12 10 9 8 10 7 7 6 7 6 6 4 3 4 2
1021 974 1076 486 260 223 178 75 3 1 1 0 1 0 0 0 0 0 0 0 0 1 2 1 2 0 0 1 18 26 22 8 6 7 9 7 6 4 3 5 4 5 2
953 1153 854 523 252 259 207 71 2 0 0 0 1 3 2 0 0 0 0 0 0 0 0 0 0 0 0 0 0 0 0 24 21 10 10 8 8 5 6 5 4 6 7
830 985 455 344 204 302 159 70 5 1 0 0 0 1 4 2 0 0 0 0 0 0 0 0 0 0 0 0 0 0 0 0 0 27 21 22 29 13 5 5 4 11 5
1274 505 541 186 233 338 189 59 14 3 0 0 0 0 0 0 0 0 0 0 0 0 0 0 0 0 0 0 0 0 0 0 0 0 14 25 25 15 4 0 1 1 1
969 266 388 212 263 258 220 26 6 1 0 0 0 0 0 0 0 0 0 0 0 0 0 0 0 0 0 0 0 0 0 0 0 0 0 0 0 0 8 37 35 20 25
1089 510 390 471 190 345 67 58 16 0 0 0 0 0 0 0 0 0 0 0 0 0 0 0 0 0 0 0 0 0 0 0 0 0 0 0 0 0 0 0 2 22 41
65 54 250 321 183 141 21 31 3 5 0 0 0 0 0 0 0 0 0 0 0 0 0 0 0 0 0 0 0 0 0 0 0 0 0 0 0 0 0 0 0 0 21
5 6 22 64 32 200 110 4 2 1 0 0 0 0 0 0 0 0 0 0 0 0 0 0 0 0 0 0 0 0 0 0 0 0 0 0 0 0 0 0 0 0 0
6 5 3 3 3 6 12 2 4 2 0 0 0 0 0 0 0 0 0 0 0 0 0 0 0 0 0 0 0 0 0 0 0 0 0 0 0 0 0 0 0 1 14
6 6 3 3 3 1 1 1 1 3 0 0 0 0 0 0 0 0 0 0 0 0 0 0 0 0 0 0 0 0 0 0 0 0 0 0 0 0 0 0 0 0 0
2 1 1 1 2 1 0 1 0 0 0 1 1 0 0 0 0 0 0 0 0 0 0 0 0 0 0 0 0 0 0 0 0 0 0 0 0 0 0 0 0 0 0
2 2 2 3 3 3 1 0 0 1 0 0 0 0 0 0 0 0 0 0 0 0 0 0 0 0 0 0 0 0 0 0 0 0 0 0 0 0 0 0 0 0 0
1 1 1 1 2 2 2 1 0 0 0 0 0 0 0 0 0 0 0 0 0 0 0 0 0 0 0 0 0 0 0 0 0 0 0 0 0 0 0 0 0 0 0
1 0 0 1 1 1 1 0 0 0 0 0 0 0 0 0 0 0 0 0 0 0 0 0 0 0 0 0 0 0 0 0 0 0 0 0 0 0 0 0 0 0 0
0 0 0 0 0 0 0 0 0 0 0 0 0 0 0 0 0 0 0 0 0 0 0 0 0 0 0 0 0 0 0 0 0 0 0 0 0 0 0 0 0 0 0
2 0 0 0 0 0 0 0 0 0 0 0 0 0 0 0 0 0 0 0 0 0 0 0 0 0 0 0 0 0 0 0 0 0 0 0 0 0 0 0 0 0 0
1 0 0 0 0 0 0 0 0 0 0 0 0 0 0 0 0 0 0 0 0 0 0 0 0 0 0 0 0 0 0 0 0 0 0 0 0 2 0 0 0 0 3
0 0 0 0 0 0 0 0 0 0 0 0 0 0 0 0 0 0 0 0 0 0 0 0 0 0 0 0 0 0 0 2 0 0 0 2 3 6 11 19 19 21 33
0 0 0 0 0 0 0 0 0 0 0 0 0 0 0 0 0 0 0 0 0 0 0 0 0 0 0 0 0 0 0 0 0 0 0 1 13 26 28 29 38 41 39
0 0 0 0 0 0 0 7 11 0 11 17 17 6 1 0 0 0 0 0 0 0 0 0 0 0 0 0 0 0 0 0 0 0 0 0 0 0 0 0 1 9 24
5 0 0 0 0 0 0 0 0 12 13 0 0 3 0 0 0 0 0 0 0 0 0 0 0 0 0 0 0 0 0 0 0 0 0 0 0 0 0 0 0 0 0
0 0 0 0 0 0 0 1 9 19 0 0 0 0 0 0 0 0 0 0 0 0 0 0 0 0 0 0 0 0 0 0 0 0 0 0 0 0 0 0 0 0 0